| time (UTC) | temp F | wind direction | speed MPH | gust MPH | rain 1hr in | rain 24hr in | rain mn in | humidity % | barometer mb |
| 20260506090411 | 77 | 87 | 3.0 | 5.0 | 0.00 | 0.00 | 0.00 | 92 | 1007.9 |
| 20260506085911 | 76 | 86 | 3.0 | 5.0 | 0.00 | 0.00 | 0.00 | 92 | 1007.9 |
| 20260506085412 | 76 | 85 | 4.0 | 5.0 | 0.00 | 0.00 | 0.00 | 92 | 1007.9 |
| 20260506084912 | 76 | 86 | 3.0 | 4.0 | 0.00 | 0.00 | 0.00 | 92 | 1007.9 |
| 20260506084411 | 76 | 121 | 4.0 | 5.0 | 0.00 | 0.00 | 0.00 | 92 | 1007.9 |
| 20260506083911 | 76 | 87 | 4.0 | 5.0 | 0.00 | 0.00 | 0.00 | 92 | 1008.1 |
| 20260506083410 | 76 | 95 | 4.0 | 5.0 | 0.00 | 0.00 | 0.00 | 92 | 1008.1 |
| 20260506082911 | 76 | 87 | 5.0 | 5.0 | 0.00 | 0.00 | 0.00 | 92 | 1008.2 |
| 20260506082411 | 76 | 85 | 4.0 | 4.0 | 0.00 | 0.00 | 0.00 | 92 | 1008.2 |
| 20260506081911 | 76 | 86 | 3.0 | 4.0 | 0.00 | 0.00 | 0.00 | 92 | 1008.2 |
| 20260506081410 | 76 | 90 | 4.0 | 5.0 | 0.00 | 0.00 | 0.00 | 92 | 1008.3 |
| 20260506080911 | 77 | 86 | 3.0 | 5.0 | 0.00 | 0.00 | 0.00 | 92 | 1008.4 |
| 20260506080412 | 77 | 86 | 4.0 | 5.0 | 0.00 | 0.00 | 0.00 | 92 | 1008.5 |
| 20260506073411 | 77 | 131 | 3.0 | 4.0 | 0.00 | 0.00 | 0.00 | 91 | 1008.8 |
| 20260506072911 | 77 | 127 | 3.0 | 5.0 | 0.00 | 0.00 | 0.00 | 91 | 1008.9 |
| 20260506072410 | 77 | 86 | 3.0 | 7.0 | 0.00 | 0.00 | 0.00 | 91 | 1008.9 |
| 20260506071911 | 77 | 86 | 3.0 | 4.0 | 0.00 | 0.00 | 0.00 | 91 | 1008.9 |
| 20260506071410 | 77 | 86 | 4.0 | 5.0 | 0.00 | 0.00 | 0.00 | 91 | 1008.9 |
| 20260506070911 | 77 | 87 | 3.0 | 5.0 | 0.00 | 0.00 | 0.00 | 91 | 1008.9 |
| 20260506070411 | 77 | 88 | 3.0 | 5.0 | 0.00 | 0.00 | 0.00 | 91 | 1009.1 |
| 20260506062410 | 77 | 86 | 2.0 | 3.0 | 0.00 | 0.00 | 0.00 | 90 | 1009.0 |
| 20260506061911 | 77 | 87 | 3.0 | 4.0 | 0.00 | 0.00 | 0.00 | 90 | 1009.0 |
| 20260506061411 | 77 | 87 | 3.0 | 4.0 | 0.00 | 0.00 | 0.00 | 90 | 1009.1 |
| 20260506060912 | 77 | 93 | 3.0 | 6.0 | 0.00 | 0.00 | 0.00 | 90 | 1009.1 |
| 20260506060411 | 77 | 86 | 4.0 | 5.0 | 0.00 | 0.00 | 0.00 | 90 | 1009.0 |
| 20260506051410 | 77 | 200 | 9.0 | 15.0 | 0.00 | 0.00 | 0.00 | 90 | 1008.8 |
| 20260506050910 | 77 | 173 | 3.0 | 4.0 | 0.00 | 0.00 | 0.00 | 90 | 1008.9 |
| 20260506050410 | 77 | 173 | 3.0 | 4.0 | 0.00 | 0.00 | 0.00 | 90 | 1009.0 |
| 20260506044910 | 77 | 86 | 3.0 | 4.0 | 0.00 | 0.00 | 0.00 | 90 | 1008.9 |
| 20260506044411 | 77 | 87 | 3.0 | 4.0 | 0.00 | 0.00 | 0.00 | 90 | 1009.0 |
| 20260506043911 | 77 | 87 | 3.0 | 4.0 | 0.00 | 0.00 | 0.00 | 90 | 1008.9 |
| 20260506043411 | 77 | 87 | 3.0 | 4.0 | 0.00 | 0.00 | 0.00 | 90 | 1009.0 |
| 20260506042910 | 77 | 88 | 3.0 | 4.0 | 0.00 | 0.00 | 0.00 | 90 | 1008.9 |
| 20260506042410 | 77 | 87 | 3.0 | 4.0 | 0.00 | 0.00 | 0.00 | 89 | 1008.9 |
| 20260506041911 | 77 | 90 | 3.0 | 4.0 | 0.00 | 0.00 | 0.00 | 89 | 1008.9 |
| 20260506041411 | 77 | 122 | 6.0 | 13.0 | 0.00 | 0.00 | 0.00 | 89 | 1009.0 |
| 20260506040911 | 77 | 124 | 4.0 | 7.0 | 0.00 | 0.00 | 0.00 | 89 | 1009.0 |
| 20260506040411 | 77 | 97 | 3.0 | 9.0 | 0.00 | 0.00 | 0.00 | 89 | 1009.0 |
| 20260506035911 | 77 | 100 | 3.0 | 4.0 | 0.00 | 0.00 | 0.00 | 89 | 1009.1 |
| 20260506035410 | 77 | 138 | 3.0 | 3.0 | 0.00 | 0.00 | 0.00 | 89 | 1009.2 |
| 20260506034911 | 77 | 105 | 2.0 | 5.0 | 0.00 | 0.00 | 0.00 | 89 | 1009.1 |
| 20260506034410 | 77 | 87 | 2.0 | 4.0 | 0.00 | 0.00 | 0.00 | 88 | 1009.1 |
| 20260506033910 | 77 | 87 | 3.0 | 4.0 | 0.00 | 0.00 | 0.00 | 88 | 1008.9 |
| 20260506032923 | 77 | 97 | 4.0 | 4.0 | 0.00 | 0.00 | 0.00 | 88 | 1008.8 |
| 20260506032411 | 77 | 134 | 3.0 | 4.0 | 0.00 | 0.00 | 0.00 | 88 | 1008.9 |
| 20260506031911 | 77 | 88 | 2.0 | 4.0 | 0.00 | 0.00 | 0.00 | 89 | 1008.7 |
| 20260506031410 | 77 | 172 | 2.0 | 4.0 | 0.00 | 0.00 | 0.00 | 89 | 1008.7 |
| 20260506030910 | 77 | 127 | 2.0 | 4.0 | 0.00 | 0.00 | 0.00 | 89 | 1008.6 |
| 20260506030412 | 77 | 173 | 2.0 | 4.0 | 0.00 | 0.00 | 0.00 | 89 | 1008.7 |
| 20260506025911 | 77 | 174 | 3.0 | 4.0 | 0.00 | 0.00 | 0.00 | 89 | 1008.5 |
| 20260506025410 | 77 | 155 | 3.0 | 4.0 | 0.00 | 0.00 | 0.00 | 89 | 1008.5 |
| 20260506024910 | 77 | 112 | 2.0 | 4.0 | 0.00 | 0.00 | 0.00 | 89 | 1008.5 |
| 20260506024410 | 77 | 93 | 3.0 | 8.0 | 0.00 | 0.00 | 0.00 | 89 | 1008.5 |
| 20260506023910 | 77 | 89 | 2.0 | 4.0 | 0.00 | 0.00 | 0.00 | 89 | 1008.4 |
| 20260506023410 | 77 | 116 | 3.0 | 6.0 | 0.00 | 0.00 | 0.00 | 89 | 1008.4 |
| 20260506022911 | 77 | 92 | 2.0 | 4.0 | 0.00 | 0.00 | 0.00 | 89 | 1008.1 |
| 20260506022411 | 77 | 106 | 3.0 | 4.0 | 0.00 | 0.00 | 0.00 | 89 | 1008.1 |
| 20260506021910 | 77 | 86 | 2.0 | 3.0 | 0.00 | 0.00 | 0.00 | 89 | 1008.0 |
| 20260506021411 | 77 | 156 | 3.0 | 4.0 | 0.00 | 0.00 | 0.00 | 89 | 1008.1 |
| 20260506020912 | 77 | 114 | 3.0 | 3.0 | 0.00 | 0.00 | 0.00 | 89 | 1008.1 |
| 20260506020411 | 77 | 86 | 2.0 | 3.0 | 0.00 | 0.00 | 0.00 | 89 | 1008.1 |
| 20260506015911 | 77 | 87 | 3.0 | 4.0 | 0.00 | 0.00 | 0.00 | 89 | 1008.1 |
| 20260506015411 | 77 | 130 | 2.0 | 4.0 | 0.00 | 0.00 | 0.00 | 89 | 1008.0 |
| 20260506014912 | 77 | 87 | 2.0 | 3.0 | 0.00 | 0.00 | 0.00 | 89 | 1007.9 |
| 20260506014411 | 77 | 86 | 3.0 | 4.0 | 0.00 | 0.00 | 0.00 | 89 | 1007.8 |
| 20260506013911 | 77 | 86 | 2.0 | 4.0 | 0.00 | 0.00 | 0.00 | 89 | 1007.9 |
| 20260506013410 | 77 | 86 | 3.0 | 4.0 | 0.00 | 0.00 | 0.00 | 89 | 1007.8 |
| 20260506012910 | 77 | 86 | 2.0 | 4.0 | 0.00 | 0.00 | 0.00 | 89 | 1007.7 |
| 20260506012410 | 77 | 96 | 2.0 | 4.0 | 0.00 | 0.00 | 0.00 | 89 | 1007.6 |
| 20260506011911 | 77 | 96 | 3.0 | 8.0 | 0.00 | 0.00 | 0.00 | 89 | 1007.5 |
| 20260506011410 | 77 | 99 | 2.0 | 3.0 | 0.00 | 0.00 | 0.00 | 89 | 1007.4 |
| 20260506010910 | 77 | 125 | 2.0 | 3.0 | 0.00 | 0.00 | 0.00 | 89 | 1007.3 |
| 20260506010411 | 77 | 148 | 3.0 | 4.0 | 0.00 | 0.00 | 0.00 | 89 | 1007.3 |
| 20260506005912 | 77 | 86 | 2.0 | 4.0 | 0.00 | 0.00 | 0.00 | 89 | 1007.3 |
| 20260506005411 | 77 | 86 | 2.0 | 3.0 | 0.00 | 0.00 | 0.00 | 89 | 1007.3 |
| 20260506004913 | 77 | 86 | 3.0 | 4.0 | 0.00 | 0.00 | 0.00 | 89 | 1007.2 |
| 20260506004411 | 77 | 86 | 2.0 | 4.0 | 0.00 | 0.00 | 0.00 | 89 | 1007.1 |
| 20260506003912 | 78 | 129 | 3.0 | 4.0 | 0.00 | 0.00 | 0.00 | 88 | 1007.1 |
| 20260506003411 | 78 | 137 | 3.0 | 4.0 | 0.00 | 0.00 | 0.00 | 88 | 1007.1 |
| 20260506002911 | 78 | 173 | 2.0 | 3.0 | 0.00 | 0.00 | 0.00 | 88 | 1007.2 |
| 20260506002416 | 78 | 127 | 2.0 | 3.0 | 0.00 | 0.00 | 0.00 | 88 | 1007.3 |
| 20260506001910 | 78 | 93 | 2.0 | 5.0 | 0.00 | 0.00 | 0.00 | 88 | 1007.3 |
| 20260506001411 | 78 | 86 | 2.0 | 4.0 | 0.00 | 0.00 | 0.00 | 88 | 1007.3 |
| 20260506000914 | 78 | 86 | 2.0 | 2.0 | 0.00 | 0.00 | 0.00 | 88 | 1007.3 |
| 20260506000411 | 78 | 86 | 2.0 | 2.0 | 0.00 | 0.00 | 0.00 | 87 | 1007.4 |
| 20260505235910 | 78 | 86 | 2.0 | 3.0 | 0.00 | 0.00 | 0.00 | 87 | 1007.3 |
| 20260505235410 | 78 | 86 | 2.0 | 2.0 | 0.00 | 0.00 | 0.00 | 87 | 1007.4 |
| 20260505234913 | 78 | 87 | 1.0 | 3.0 | 0.00 | 0.00 | 0.00 | 87 | 1007.4 |
| 20260505234410 | 78 | 109 | 2.0 | 3.0 | 0.00 | 0.00 | 0.00 | 87 | 1007.4 |
| 20260505233910 | 78 | 87 | 2.0 | 2.0 | 0.00 | 0.00 | 0.00 | 86 | 1007.4 |
| 20260505233411 | 78 | 87 | 2.0 | 3.0 | 0.00 | 0.00 | 0.00 | 86 | 1007.3 |
| 20260505232910 | 78 | 91 | 2.0 | 3.0 | 0.00 | 0.00 | 0.00 | 86 | 1007.3 |
| 20260505232411 | 78 | 87 | 2.0 | 2.0 | 0.00 | 0.00 | 0.00 | 86 | 1007.4 |
| 20260505231910 | 78 | 87 | 2.0 | 4.0 | 0.00 | 0.00 | 0.00 | 86 | 1007.3 |
| 20260505231411 | 78 | 87 | 2.0 | 3.0 | 0.00 | 0.00 | 0.00 | 86 | 1007.5 |
| 20260505230910 | 78 | 87 | 2.0 | 3.0 | 0.00 | 0.00 | 0.00 | 86 | 1007.4 |
| 20260505230411 | 78 | 90 | 2.0 | 3.0 | 0.00 | 0.00 | 0.00 | 86 | 1007.4 |
| 20260505225911 | 78 | 145 | 2.0 | 2.0 | 0.00 | 0.00 | 0.00 | 86 | 1007.5 |
| 20260505225410 | 78 | 130 | 2.0 | 3.0 | 0.00 | 0.00 | 0.00 | 86 | 1007.5 |
| 20260505224910 | 78 | 170 | 2.0 | 3.0 | 0.00 | 0.00 | 0.00 | 85 | 1007.5 |
| 20260505224411 | 78 | 118 | 2.0 | 4.0 | 0.00 | 0.00 | 0.00 | 85 | 1007.2 |
| 20260505223911 | 78 | 111 | 2.0 | 6.0 | 0.00 | 0.00 | 0.00 | 85 | 1007.6 |
| 20260505223411 | 78 | 87 | 2.0 | 3.0 | 0.00 | 0.00 | 0.00 | 85 | 1007.4 |
| 20260505222911 | 78 | 88 | 2.0 | 3.0 | 0.00 | 0.00 | 0.00 | 85 | 1007.4 |
| 20260505222410 | 78 | 252 | 3.0 | 5.0 | 0.00 | 0.00 | 0.00 | 84 | 1007.6 |
| 20260505221911 | 78 | 198 | 4.0 | 9.0 | 0.00 | 0.00 | 0.00 | 85 | 1007.6 |
| 20260505221411 | 78 | 98 | 2.0 | 6.0 | 0.00 | 0.00 | 0.00 | 86 | 1007.7 |
| 20260505220911 | 79 | 114 | 2.0 | 2.0 | 0.00 | 0.00 | 0.00 | 85 | 1007.9 |
| 20260505220411 | 79 | 99 | 2.0 | 3.0 | 0.00 | 0.00 | 0.00 | 85 | 1007.9 |
| 20260505215911 | 79 | 107 | 2.0 | 4.0 | 0.00 | 0.00 | 0.00 | 85 | 1008.0 |
| 20260505215410 | 79 | 88 | 2.0 | 3.0 | 0.00 | 0.00 | 0.00 | 85 | 1008.0 |
| 20260505214911 | 79 | 123 | 4.0 | 10.0 | 0.00 | 0.00 | 0.00 | 84 | 1008.1 |
| 20260505214411 | 79 | 151 | 4.0 | 11.0 | 0.00 | 0.00 | 0.00 | 84 | 1008.1 |
| 20260505213910 | 79 | 88 | 2.0 | 3.0 | 0.00 | 0.00 | 0.00 | 84 | 1008.1 |
| 20260505213411 | 79 | 239 | 2.0 | 4.0 | 0.00 | 0.00 | 0.00 | 84 | 1008.0 |
| 20260505212911 | 79 | 89 | 2.0 | 2.0 | 0.00 | 0.00 | 0.00 | 84 | 1008.1 |
| 20260505212412 | 79 | 89 | 2.0 | 7.0 | 0.00 | 0.00 | 0.00 | 84 | 1008.3 |
| 20260505211911 | 79 | 100 | 2.0 | 2.0 | 0.00 | 0.00 | 0.00 | 83 | 1008.3 |
| 20260505211411 | 79 | 148 | 2.0 | 2.0 | 0.00 | 0.00 | 0.00 | 83 | 1008.4 |
| 20260505210911 | 79 | 161 | 2.0 | 3.0 | 0.00 | 0.00 | 0.00 | 83 | 1008.4 |
| 20260505210411 | 79 | 128 | 3.0 | 7.0 | 0.00 | 0.00 | 0.00 | 83 | 1008.4 |
| 20260505205910 | 80 | 108 | 2.0 | 4.0 | 0.00 | 0.00 | 0.00 | 82 | 1008.1 |
| 20260505205411 | 80 | 114 | 2.0 | 7.0 | 0.00 | 0.00 | 0.00 | 82 | 1008.0 |
| 20260505204910 | 80 | 85 | 3.0 | 10.0 | 0.00 | 0.00 | 0.00 | 82 | 1008.5 |
| 20260505204411 | 80 | 112 | 2.0 | 3.0 | 0.00 | 0.00 | 0.00 | 82 | 1008.3 |
| 20260505203915 | 80 | 159 | 2.0 | 3.0 | 0.00 | 0.00 | 0.00 | 82 | 1008.5 |
| 20260505203415 | 80 | 150 | 2.0 | 3.0 | 0.00 | 0.00 | 0.00 | 81 | 1008.5 |
| 20260505202911 | 80 | 140 | 2.0 | 3.0 | 0.00 | 0.00 | 0.00 | 81 | 1008.7 |
| 20260505202411 | 80 | 103 | 2.0 | 4.0 | 0.00 | 0.00 | 0.00 | 82 | 1008.7 |
| 20260505201911 | 80 | 107 | 2.0 | 4.0 | 0.00 | 0.00 | 0.00 | 82 | 1008.7 |
| 20260505201411 | 80 | 117 | 3.0 | 6.0 | 0.00 | 0.00 | 0.00 | 81 | 1008.8 |
| 20260505200910 | 80 | 118 | 4.0 | 9.0 | 0.00 | 0.00 | 0.00 | 81 | 1008.7 |
| 20260505200410 | 80 | 126 | 4.0 | 14.0 | 0.00 | 0.00 | 0.00 | 81 | 1008.7 |
| 20260505195911 | 80 | 89 | 2.0 | 3.0 | 0.00 | 0.00 | 0.00 | 81 | 1008.7 |
| 20260505195412 | 80 | 97 | 2.0 | 4.0 | 0.00 | 0.00 | 0.00 | 81 | 1008.7 |
| 20260505194911 | 79 | 215 | 3.0 | 6.0 | 0.00 | 0.00 | 0.00 | 83 | 1008.6 |
| 20260505194411 | 80 | 88 | 2.0 | 3.0 | 0.00 | 0.00 | 0.00 | 82 | 1009.3 |
| 20260505193911 | 80 | 114 | 2.0 | 3.0 | 0.00 | 0.00 | 0.00 | 82 | 1009.2 |
| 20260505193411 | 80 | 175 | 2.0 | 4.0 | 0.00 | 0.00 | 0.00 | 82 | 1009.2 |
| 20260505192910 | 80 | 236 | 3.0 | 8.0 | 0.00 | 0.00 | 0.00 | 81 | 1009.5 |
| 20260505192411 | 80 | 251 | 5.0 | 15.0 | 0.00 | 0.00 | 0.00 | 82 | 1009.3 |
| 20260505191911 | 80 | 241 | 5.0 | 10.0 | 0.00 | 0.00 | 0.00 | 81 | 1009.3 |
| 20260505191411 | 80 | 222 | 2.0 | 5.0 | 0.00 | 0.00 | 0.00 | 81 | 1009.2 |
| 20260505190910 | 80 | 135 | 2.0 | 4.0 | 0.00 | 0.00 | 0.00 | 82 | 1009.3 |
| 20260505190412 | 80 | 152 | 4.0 | 7.0 | 0.00 | 0.00 | 0.00 | 81 | 1009.2 |
| 20260505185911 | 80 | 188 | 4.0 | 7.0 | 0.00 | 0.00 | 0.00 | 81 | 1009.0 |
| 20260505185414 | 80 | 257 | 3.0 | 5.0 | 0.00 | 0.00 | 0.00 | 81 | 1009.1 |
| 20260505184911 | 80 | 256 | 3.0 | 5.0 | 0.00 | 0.00 | 0.00 | 81 | 1009.2 |
| 20260505184410 | 80 | 250 | 2.0 | 3.0 | 0.00 | 0.00 | 0.00 | 81 | 1009.4 |
| 20260505183910 | 80 | 253 | 4.0 | 6.0 | 0.00 | 0.00 | 0.00 | 81 | 1009.0 |
| 20260505183410 | 80 | 168 | 4.0 | 10.0 | 0.00 | 0.00 | 0.00 | 81 | 1009.2 |
| 20260505182913 | 80 | 212 | 4.0 | 8.0 | 0.00 | 0.00 | 0.00 | 81 | 1009.3 |
| 20260505182414 | 80 | 206 | 8.0 | 11.0 | 0.00 | 0.00 | 0.00 | 82 | 1009.3 |
| 20260505181911 | 79 | 154 | 3.0 | 12.0 | 0.00 | 0.00 | 0.00 | 83 | 1009.3 |
| 20260505181413 | 79 | 87 | 3.0 | 4.0 | 0.00 | 0.00 | 0.00 | 83 | 1009.4 |
| 20260505180912 | 79 | 143 | 3.0 | 8.0 | 0.00 | 0.00 | 0.00 | 83 | 1009.4 |
| 20260505180411 | 79 | 241 | 4.0 | 6.0 | 0.00 | 0.00 | 0.00 | 83 | 1009.3 |
| 20260505175911 | 79 | 229 | 3.0 | 6.0 | 0.00 | 0.00 | 0.00 | 83 | 1009.5 |
| 20260505175410 | 79 | 177 | 4.0 | 8.0 | 0.00 | 0.00 | 0.00 | 82 | 1009.6 |
| 20260505174911 | 79 | 252 | 6.0 | 9.0 | 0.00 | 0.00 | 0.00 | 82 | 1009.5 |
| 20260505174414 | 80 | 240 | 5.0 | 8.0 | 0.00 | 0.00 | 0.00 | 82 | 1009.5 |
| 20260505173913 | 80 | 201 | 4.0 | 8.0 | 0.00 | 0.00 | 0.00 | 82 | 1009.8 |
| 20260505173411 | 80 | 237 | 6.0 | 10.0 | 0.00 | 0.00 | 0.00 | 81 | 1009.7 |
| 20260505172911 | 80 | 190 | 4.0 | 8.0 | 0.00 | 0.00 | 0.00 | 81 | 1009.6 |
| 20260505172411 | 80 | 178 | 2.0 | 4.0 | 0.00 | 0.00 | 0.00 | 82 | 1009.6 |
| 20260505171910 | 79 | 163 | 3.0 | 5.0 | 0.00 | 0.00 | 0.00 | 82 | 1009.9 |
| 20260505171411 | 79 | 189 | 2.0 | 6.0 | 0.00 | 0.00 | 0.00 | 82 | 1009.7 |
| 20260505170910 | 79 | 246 | 3.0 | 7.0 | 0.00 | 0.00 | 0.00 | 83 | 1010.0 |
| 20260505170411 | 79 | 207 | 3.0 | 6.0 | 0.00 | 0.00 | 0.00 | 82 | 1009.8 |
| 20260505165911 | 79 | 239 | 4.0 | 5.0 | 0.00 | 0.00 | 0.00 | 83 | 1009.9 |
| 20260505165412 | 79 | 214 | 5.0 | 10.0 | 0.00 | 0.00 | 0.00 | 84 | 1009.8 |
| 20260505164912 | 78 | 217 | 5.0 | 9.0 | 0.00 | 0.00 | 0.00 | 84 | 1009.9 |
| 20260505164411 | 79 | 201 | 4.0 | 8.0 | 0.00 | 0.00 | 0.00 | 84 | 1010.0 |
| 20260505163911 | 79 | 220 | 5.0 | 8.0 | 0.00 | 0.00 | 0.00 | 83 | 1010.0 |
| 20260505163411 | 79 | 197 | 3.0 | 4.0 | 0.00 | 0.00 | 0.00 | 83 | 1009.8 |
| 20260505162911 | 79 | 92 | 2.0 | 3.0 | 0.00 | 0.00 | 0.00 | 83 | 1009.9 |
| 20260505162410 | 79 | 167 | 3.0 | 4.0 | 0.00 | 0.00 | 0.00 | 83 | 1009.8 |
| 20260505161910 | 79 | 188 | 4.0 | 7.0 | 0.00 | 0.00 | 0.00 | 83 | 1009.7 |
| 20260505161410 | 78 | 170 | 4.0 | 6.0 | 0.00 | 0.00 | 0.00 | 84 | 1009.7 |
| 20260505160911 | 78 | 167 | 3.0 | 3.0 | 0.00 | 0.00 | 0.00 | 83 | 1009.6 |
| 20260505160410 | 78 | 105 | 3.0 | 4.0 | 0.00 | 0.00 | 0.00 | 83 | 1009.6 |
| 20260505152912 | 78 | 161 | 3.0 | 4.0 | 0.00 | 0.00 | 0.00 | 83 | 1009.7 |
| 20260505152415 | 78 | 160 | 3.0 | 4.0 | 0.00 | 0.00 | 0.00 | 83 | 1009.6 |
| 20260505151911 | 78 | 166 | 4.0 | 4.0 | 0.00 | 0.00 | 0.00 | 83 | 1009.6 |
| 20260505151411 | 78 | 139 | 3.0 | 4.0 | 0.00 | 0.00 | 0.00 | 82 | 1009.5 |
| 20260505150911 | 79 | 91 | 3.0 | 5.0 | 0.00 | 0.00 | 0.00 | 83 | 1009.7 |
| 20260505150412 | 79 | 81 | 4.0 | 9.0 | 0.00 | 0.00 | 0.00 | 82 | 1009.5 |
| 20260505140414 | 78 | 179 | 3.0 | 8.0 | 0.00 | 0.00 | 0.00 | 83 | 1009.5 |
| 20260505124911 | 76 | 173 | 4.0 | 4.0 | 0.00 | 0.00 | 0.00 | 87 | 1009.1 |
| 20260505124410 | 76 | 172 | 4.0 | 4.0 | 0.00 | 0.00 | 0.00 | 87 | 1009.1 |
| 20260505123912 | 76 | 172 | 3.0 | 4.0 | 0.00 | 0.00 | 0.00 | 87 | 1009.0 |
| 20260505123412 | 76 | 172 | 3.0 | 4.0 | 0.00 | 0.00 | 0.00 | 87 | 1009.0 |
| 20260505122911 | 76 | 173 | 2.0 | 3.0 | 0.00 | 0.00 | 0.00 | 87 | 1009.0 |
| 20260505122410 | 75 | 172 | 3.0 | 3.0 | 0.00 | 0.00 | 0.00 | 87 | 1008.9 |
| 20260505121911 | 75 | 175 | 2.0 | 2.0 | 0.00 | 0.00 | 0.00 | 87 | 1009.0 |
| 20260505121410 | 75 | 175 | 2.0 | 2.0 | 0.00 | 0.00 | 0.00 | 88 | 1008.9 |
| 20260505120911 | 75 | 174 | 2.0 | 2.0 | 0.00 | 0.00 | 0.00 | 88 | 1008.9 |
| 20260505120411 | 75 | 175 | 2.0 | 2.0 | 0.00 | 0.00 | 0.00 | 88 | 1008.9 |
| 20260505115910 | 75 | 175 | 2.0 | 2.0 | 0.00 | 0.00 | 0.00 | 88 | 1008.8 |
| 20260505115411 | 75 | 174 | 2.0 | 2.0 | 0.00 | 0.00 | 0.00 | 88 | 1008.9 |
| 20260505114912 | 75 | 175 | 2.0 | 2.0 | 0.00 | 0.00 | 0.00 | 88 | 1008.9 |
| 20260505114410 | 75 | 174 | 2.0 | 2.0 | 0.00 | 0.00 | 0.00 | 88 | 1008.9 |
| 20260505113910 | 75 | 174 | 2.0 | 2.0 | 0.00 | 0.00 | 0.00 | 88 | 1008.8 |
| 20260505113410 | 75 | 175 | 2.0 | 2.0 | 0.00 | 0.00 | 0.00 | 87 | 1008.9 |
| 20260505112912 | 75 | 175 | 2.0 | 2.0 | 0.00 | 0.00 | 0.00 | 87 | 1009.0 |
| 20260505112411 | 75 | 175 | 2.0 | 2.0 | 0.00 | 0.00 | 0.00 | 87 | 1008.9 |
| 20260505111911 | 75 | 175 | 2.0 | 2.0 | 0.00 | 0.00 | 0.00 | 87 | 1008.7 |
| 20260505111411 | 75 | 174 | 2.0 | 2.0 | 0.00 | 0.00 | 0.00 | 87 | 1008.8 |
| 20260505110912 | 75 | 186 | 3.0 | 9.0 | 0.00 | 0.00 | 0.00 | 87 | 1008.7 |
| 20260505110411 | 75 | 175 | 2.0 | 2.0 | 0.00 | 0.00 | 0.00 | 87 | 1008.6 |
| 20260505101911 | 75 | 174 | 1.0 | 2.0 | 0.00 | 0.00 | 0.00 | 86 | 1008.8 |
| 20260505101413 | 75 | 174 | 1.0 | 2.0 | 0.00 | 0.00 | 0.00 | 86 | 1008.8 |
| 20260505100910 | 75 | 174 | 2.0 | 2.0 | 0.00 | 0.00 | 0.00 | 86 | 1008.8 |
| 20260505100411 | 75 | 174 | 2.0 | 2.0 | 0.00 | 0.00 | 0.00 | 86 | 1008.7 |
| 20260505095910 | 75 | 175 | 2.0 | 2.0 | 0.00 | 0.00 | 0.00 | 86 | 1008.9 |
| 20260505095410 | 75 | 174 | 2.0 | 2.0 | 0.00 | 0.00 | 0.00 | 85 | 1008.8 |
| 20260505094910 | 75 | 174 | 2.0 | 2.0 | 0.00 | 0.00 | 0.00 | 85 | 1008.8 |
| 20260505094410 | 75 | 175 | 2.0 | 2.0 | 0.00 | 0.00 | 0.00 | 85 | 1008.9 |
| 20260505093916 | 75 | 174 | 1.0 | 2.0 | 0.00 | 0.00 | 0.00 | 85 | 1008.8 |
| 20260505093411 | 75 | 174 | 2.0 | 2.0 | 0.00 | 0.00 | 0.00 | 85 | 1008.9 |
| 20260505092909 | 75 | 175 | 1.0 | 2.0 | 0.00 | 0.00 | 0.00 | 85 | 1008.8 |
| 20260505092410 | 75 | 174 | 2.0 | 2.0 | 0.00 | 0.00 | 0.00 | 85 | 1008.8 |
| 20260505091910 | 74 | 175 | 2.0 | 2.0 | 0.00 | 0.00 | 0.00 | 85 | 1008.8 |
| 20260505091410 | 74 | 175 | 2.0 | 2.0 | 0.00 | 0.00 | 0.00 | 85 | 1008.7 |
| 20260505090910 | 74 | 175 | 2.0 | 3.0 | 0.00 | 0.00 | 0.00 | 85 | 1008.8 |